This is the latest recevied weather packets stored in our database for station/object WY7ATH-2. If no packets are shown the sender has not sent any weather packets the latest 10 day(s).
| Time | Temp. | Humidity | Pressure | Rain* | Wind** | Luminosity | Snow |
|---|---|---|---|---|---|---|---|
| 1778118486 | 0.56° C | - | - | 10.41 mm | 0 m/s | - | - |
| 1778117889 | 1.11° C | - | - | 10.41 mm | 0 m/s | - | - |
| 1778117292 | 1.67° C | - | - | 10.41 mm | 0 m/s | - | - |
| 1778116695 | 1.67° C | - | - | 10.41 mm | 0 m/s | - | - |
| 1778116553 | 1.67° C | - | - | 10.41 mm | 0 m/s | - | - |
| 1778116545 | 1.67° C | - | - | 12.19 mm | 0 m/s | - | - |
| 1778116098 | 1.67° C | - | - | 10.41 mm | 0 m/s | - | - |
| 1778115502 | 1.67° C | - | - | 12.19 mm | 0 m/s | - | - |
| 1778114003 | 2.22° C | - | - | 12.19 mm | 0 m/s | - | - |
| 1778113707 | 2.22° C | - | - | 12.19 mm | 0 m/s | - | - |
| 1778113432 | 2.22° C | - | - | 12.19 mm | 0 m/s | - | - |
| 1778113110 | 2.22° C | - | - | 12.19 mm | 0 m/s | - | - |
| 1778112513 | 2.22° C | - | - | 12.19 mm | 0 m/s | - | - |
| 1778111916 | 2.78° C | - | - | 14.22 mm | 0 m/s | - | - |
| 1778111316 | 2.78° C | - | - | 14.22 mm | 0 m/s | - | - |
| 1778110719 | 2.78° C | - | - | 14.22 mm | 0 m/s | - | - |
| 1778109670 | 4.44° C | - | - | 14.22 mm | 0 m/s | - | - |
| 1778109525 | 4.44° C | - | - | 14.22 mm | 0 m/s | - | - |
| 1778107731 | 6.11° C | - | - | 16.26 mm | 0 m/s | - | - |
| 1778105342 | 5° C | - | - | 16.26 mm | 0 m/s | - | - |
| 1778103403 | 3.33° C | - | - | 18.54 mm | 0 m/s | - | - |
| 1778102950 | 3.89° C | - | - | 18.54 mm | 0 m/s | - | - |
| 1778102354 | 3.33° C | - | - | 18.54 mm | 0 m/s | - | - |
| 1778101757 | 4.44° C | - | - | 18.54 mm | 0 m/s | - | - |
| 1778101160 | 5° C | - | - | 18.54 mm | 0 m/s | - | - |
* Rain latest hour (hover to see other rain measurements)
** Current wind speed in m/s (hover to see current wind gust speed)